| time (UTC) | temp F | wind direction | speed MPH | gust MPH | rain 1hr in | rain 24hr in | rain mn in | humidity % | barometer mb |
| 20260504050732 | 79 | 138 | 2.0 | 4.0 | 0.00 | 0.00 | 0.00 | 28 | 1013.0 |
| 20260504050229 | 79 | 220 | 2.0 | 3.0 | 0.00 | 0.00 | 0.00 | 27 | 1013.0 |
| 20260504045726 | 80 | 210 | 0.0 | 7.0 | 0.00 | 0.00 | 0.00 | 27 | 1013.0 |
| 20260504045221 | 80 | 237 | 5.0 | 8.0 | 0.00 | 0.00 | 0.00 | 26 | 1012.8 |
| 20260504044719 | 80 | 180 | 1.0 | 8.0 | 0.00 | 0.00 | 0.00 | 26 | 1013.0 |
| 20260504044217 | 80 | 150 | 2.0 | 7.0 | 0.00 | 0.00 | 0.00 | 26 | 1012.7 |
| 20260504043714 | 81 | 240 | 4.0 | 9.0 | 0.00 | 0.00 | 0.00 | 25 | 1012.5 |
| 20260504043210 | 81 | 182 | 5.0 | 12.0 | 0.00 | 0.00 | 0.00 | 25 | 1012.6 |
| 20260504042708 | 81 | 218 | 2.0 | 8.0 | 0.00 | 0.00 | 0.00 | 25 | 1012.5 |
| 20260504042204 | 81 | 169 | 0.0 | 4.0 | 0.00 | 0.00 | 0.00 | 26 | 1012.3 |
| 20260504041700 | 81 | 158 | 1.0 | 3.0 | 0.00 | 0.00 | 0.00 | 25 | 1012.3 |
| 20260504041156 | 81 | 200 | 1.0 | 6.0 | 0.00 | 0.00 | 0.00 | 25 | 1012.4 |
| 20260504040653 | 82 | 230 | 2.0 | 6.0 | 0.00 | 0.00 | 0.00 | 25 | 1012.2 |
| 20260504040150 | 82 | 187 | 2.0 | 10.0 | 0.00 | 0.00 | 0.00 | 24 | 1012.3 |
| 20260504035646 | 82 | 190 | 1.0 | 12.0 | 0.00 | 0.00 | 0.00 | 24 | 1012.0 |
| 20260504035144 | 82 | 186 | 5.0 | 9.0 | 0.00 | 0.00 | 0.00 | 24 | 1012.0 |
| 20260504034641 | 82 | 223 | 6.0 | 14.0 | 0.00 | 0.00 | 0.00 | 23 | 1011.9 |
| 20260504034138 | 83 | 207 | 4.0 | 8.0 | 0.00 | 0.00 | 0.00 | 23 | 1011.6 |
| 20260504033636 | 83 | 201 | 2.0 | 10.0 | 0.00 | 0.00 | 0.00 | 23 | 1011.6 |
| 20260504033133 | 83 | 207 | 3.0 | 14.0 | 0.00 | 0.00 | 0.00 | 23 | 1011.1 |
| 20260504032630 | 83 | 221 | 4.0 | 13.0 | 0.00 | 0.00 | 0.00 | 22 | 1011.3 |
| 20260504032127 | 83 | 167 | 2.0 | 7.0 | 0.00 | 0.00 | 0.00 | 22 | 1011.3 |
| 20260504031624 | 84 | 212 | 6.0 | 15.0 | 0.00 | 0.00 | 0.00 | 22 | 1011.0 |
| 20260504031120 | 84 | 190 | 3.0 | 7.0 | 0.00 | 0.00 | 0.00 | 21 | 1010.9 |
| 20260504030617 | 84 | 151 | 2.0 | 12.0 | 0.00 | 0.00 | 0.00 | 21 | 1010.6 |
| 20260504030114 | 84 | 217 | 3.0 | 10.0 | 0.00 | 0.00 | 0.00 | 21 | 1010.8 |
| 20260504025610 | 85 | 242 | 7.0 | 15.0 | 0.00 | 0.00 | 0.00 | 20 | 1010.8 |
| 20260504025108 | 85 | 216 | 3.0 | 9.0 | 0.00 | 0.00 | 0.00 | 20 | 1010.7 |
| 20260504024605 | 85 | 216 | 3.0 | 11.0 | 0.00 | 0.00 | 0.00 | 20 | 1010.5 |
| 20260504024101 | 85 | 164 | 4.0 | 8.0 | 0.00 | 0.00 | 0.00 | 20 | 1010.5 |
| 20260504023558 | 86 | 204 | 3.0 | 13.0 | 0.00 | 0.00 | 0.00 | 19 | 1010.3 |
| 20260504023054 | 86 | 182 | 5.0 | 11.0 | 0.00 | 0.00 | 0.00 | 19 | 1010.3 |
| 20260504022550 | 86 | 209 | 3.0 | 13.0 | 0.00 | 0.00 | 0.00 | 19 | 1010.2 |
| 20260504022046 | 86 | 214 | 7.0 | 12.0 | 0.00 | 0.00 | 0.00 | 19 | 1009.8 |
| 20260504021544 | 87 | 226 | 2.0 | 9.0 | 0.00 | 0.00 | 0.00 | 18 | 1009.6 |
| 20260504021041 | 87 | 206 | 5.0 | 10.0 | 0.00 | 0.00 | 0.00 | 18 | 1009.8 |
| 20260504020538 | 87 | 217 | 7.0 | 12.0 | 0.00 | 0.00 | 0.00 | 18 | 1009.7 |
| 20260504020034 | 87 | 180 | 5.0 | 14.0 | 0.00 | 0.00 | 0.00 | 17 | 1009.5 |
| 20260504015530 | 88 | 223 | 3.0 | 11.0 | 0.00 | 0.00 | 0.00 | 18 | 1009.2 |
| 20260504015026 | 88 | 189 | 2.0 | 11.0 | 0.00 | 0.00 | 0.00 | 18 | 1009.4 |
| 20260504014523 | 89 | 190 | 15.0 | 16.0 | 0.00 | 0.00 | 0.00 | 17 | 1009.6 |
| 20260504014020 | 89 | 208 | 3.0 | 14.0 | 0.00 | 0.00 | 0.00 | 18 | 1009.3 |
| 20260504013518 | 90 | 212 | 3.0 | 11.0 | 0.00 | 0.00 | 0.00 | 17 | 1009.0 |
| 20260504013015 | 90 | 217 | 2.0 | 6.0 | 0.00 | 0.00 | 0.00 | 16 | 1009.0 |
| 20260504012512 | 91 | 214 | 2.0 | 5.0 | 0.00 | 0.00 | 0.00 | 15 | 1008.8 |
| 20260504012010 | 91 | 240 | 2.0 | 13.0 | 0.00 | 0.00 | 0.00 | 16 | 1009.1 |
| 20260504011506 | 91 | 211 | 4.0 | 7.0 | 0.00 | 0.00 | 0.00 | 15 | 1008.9 |
| 20260504011002 | 91 | 179 | 3.0 | 8.0 | 0.00 | 0.00 | 0.00 | 16 | 1008.9 |
| 20260504010458 | 92 | 181 | 2.0 | 9.0 | 0.00 | 0.00 | 0.00 | 16 | 1009.3 |
| 20260504005954 | 93 | 191 | 3.0 | 10.0 | 0.00 | 0.00 | 0.00 | 15 | 1009.1 |
| 20260504005451 | 93 | 176 | 2.0 | 9.0 | 0.00 | 0.00 | 0.00 | 15 | 1008.9 |
| 20260504004949 | 93 | 141 | 2.0 | 9.0 | 0.00 | 0.00 | 0.00 | 16 | 1009.0 |
| 20260504004446 | 93 | 180 | 1.0 | 11.0 | 0.00 | 0.00 | 0.00 | 16 | 1009.2 |
| 20260504003943 | 94 | 229 | 6.0 | 9.0 | 0.00 | 0.00 | 0.00 | 15 | 1009.2 |
| 20260504003439 | 94 | 257 | 4.0 | 11.0 | 0.00 | 0.00 | 0.00 | 14 | 1009.1 |
| 20260504002936 | 95 | 238 | 3.0 | 7.0 | 0.00 | 0.00 | 0.00 | 16 | 1009.1 |
| 20260504002433 | 94 | 190 | 2.0 | 12.0 | 0.00 | 0.00 | 0.00 | 14 | 1009.1 |
| 20260504001930 | 95 | 218 | 11.0 | 11.0 | 0.00 | 0.00 | 0.00 | 14 | 1009.0 |
| 20260504001428 | 94 | 214 | 3.0 | 11.0 | 0.00 | 0.00 | 0.00 | 15 | 1009.1 |
| 20260504000924 | 95 | 174 | 5.0 | 8.0 | 0.00 | 0.00 | 0.00 | 14 | 1009.0 |
| 20260504000423 | 95 | 217 | 3.0 | 11.0 | 0.00 | 0.00 | 0.00 | 15 | 1009.1 |
| 20260503235919 | 95 | 170 | 2.0 | 12.0 | 0.00 | 0.00 | 0.00 | 16 | 1009.1 |
| 20260503235416 | 95 | 211 | 7.0 | 13.0 | 0.00 | 0.00 | 0.00 | 15 | 1009.2 |
| 20260503234914 | 95 | 235 | 5.0 | 11.0 | 0.00 | 0.00 | 0.00 | 16 | 1008.9 |
| 20260503234411 | 95 | 238 | 5.0 | 12.0 | 0.00 | 0.00 | 0.00 | 15 | 1009.2 |
| 20260503233909 | 95 | 216 | 2.0 | 6.0 | 0.00 | 0.00 | 0.00 | 16 | 1009.1 |
| 20260503233405 | 95 | 184 | 5.0 | 13.0 | 0.00 | 0.00 | 0.00 | 15 | 1009.1 |
| 20260503232901 | 95 | 225 | 10.0 | 18.0 | 0.00 | 0.00 | 0.00 | 14 | 1009.2 |
| 20260503232359 | 95 | 216 | 4.0 | 9.0 | 0.00 | 0.00 | 0.00 | 17 | 1009.2 |
| 20260503231857 | 95 | 202 | 4.0 | 10.0 | 0.00 | 0.00 | 0.00 | 16 | 1009.0 |
| 20260503231354 | 96 | 259 | 6.0 | 8.0 | 0.00 | 0.00 | 0.00 | 15 | 1009.3 |
| 20260503230850 | 96 | 204 | 3.0 | 11.0 | 0.00 | 0.00 | 0.00 | 15 | 1009.2 |
| 20260503230346 | 96 | 231 | 5.0 | 7.0 | 0.00 | 0.00 | 0.00 | 15 | 1009.3 |
| 20260503225844 | 96 | 231 | 3.0 | 8.0 | 0.00 | 0.00 | 0.00 | 16 | 1009.5 |
| 20260503225340 | 95 | 274 | 8.0 | 12.0 | 0.00 | 0.00 | 0.00 | 16 | 1009.3 |
| 20260503224836 | 95 | 219 | 4.0 | 21.0 | 0.00 | 0.00 | 0.00 | 18 | 1009.4 |
| 20260503224334 | 96 | 192 | 2.0 | 9.0 | 0.00 | 0.00 | 0.00 | 17 | 1009.7 |
| 20260503223831 | 96 | 225 | 3.0 | 12.0 | 0.00 | 0.00 | 0.00 | 17 | 1009.7 |
| 20260503223329 | 95 | 219 | 3.0 | 7.0 | 0.00 | 0.00 | 0.00 | 18 | 1009.9 |
| 20260503222824 | 96 | 211 | 6.0 | 9.0 | 0.00 | 0.00 | 0.00 | 18 | 1009.8 |
| 20260503222323 | 95 | 181 | 8.0 | 16.0 | 0.00 | 0.00 | 0.00 | 16 | 1009.9 |
| 20260503221821 | 96 | 174 | 5.0 | 11.0 | 0.00 | 0.00 | 0.00 | 16 | 1010.1 |
| 20260503221319 | 95 | 165 | 3.0 | 8.0 | 0.00 | 0.00 | 0.00 | 16 | 1010.2 |
| 20260503220814 | 95 | 194 | 4.0 | 15.0 | 0.00 | 0.00 | 0.00 | 19 | 1010.2 |
| 20260503220312 | 96 | 190 | 3.0 | 8.0 | 0.00 | 0.00 | 0.00 | 18 | 1010.3 |
| 20260503215808 | 95 | 236 | 3.0 | 8.0 | 0.00 | 0.00 | 0.00 | 18 | 1010.5 |
| 20260503215305 | 94 | 172 | 4.0 | 11.0 | 0.00 | 0.00 | 0.00 | 17 | 1010.7 |
| 20260503214803 | 95 | 149 | 2.0 | 5.0 | 0.00 | 0.00 | 0.00 | 18 | 1010.8 |
| 20260503214300 | 95 | 136 | 3.0 | 8.0 | 0.00 | 0.00 | 0.00 | 17 | 1010.8 |
| 20260503213757 | 95 | 303 | 2.0 | 5.0 | 0.00 | 0.00 | 0.00 | 16 | 1010.8 |
| 20260503213255 | 94 | 224 | 6.0 | 12.0 | 0.00 | 0.00 | 0.00 | 17 | 1010.9 |
| 20260503212751 | 95 | 219 | 3.0 | 8.0 | 0.00 | 0.00 | 0.00 | 19 | 1010.9 |
| 20260503212249 | 94 | 83 | 3.0 | 13.0 | 0.00 | 0.00 | 0.00 | 18 | 1011.3 |
| 20260503211747 | 94 | 163 | 5.0 | 15.0 | 0.00 | 0.00 | 0.00 | 18 | 1011.4 |
| 20260503211243 | 94 | 220 | 3.0 | 9.0 | 0.00 | 0.00 | 0.00 | 19 | 1011.4 |
| 20260503210738 | 94 | 211 | 5.0 | 11.0 | 0.00 | 0.00 | 0.00 | 17 | 1011.4 |
| 20260503210236 | 94 | 178 | 3.0 | 13.0 | 0.00 | 0.00 | 0.00 | 18 | 1011.8 |
| 20260503205731 | 94 | 301 | 2.0 | 8.0 | 0.00 | 0.00 | 0.00 | 19 | 1011.7 |
| 20260503205227 | 93 | 158 | 1.0 | 10.0 | 0.00 | 0.00 | 0.00 | 20 | 1011.9 |
| 20260503204724 | 94 | 221 | 5.0 | 14.0 | 0.00 | 0.00 | 0.00 | 20 | 1012.0 |
| 20260503204222 | 93 | 176 | 2.0 | 8.0 | 0.00 | 0.00 | 0.00 | 20 | 1011.9 |
| 20260503203719 | 94 | 208 | 2.0 | 6.0 | 0.00 | 0.00 | 0.00 | 20 | 1011.9 |
| 20260503203216 | 93 | 178 | 5.0 | 9.0 | 0.00 | 0.00 | 0.00 | 19 | 1012.1 |
| 20260503202713 | 94 | 197 | 3.0 | 11.0 | 0.00 | 0.00 | 0.00 | 21 | 1012.0 |
| 20260503202211 | 93 | 249 | 4.0 | 6.0 | 0.00 | 0.00 | 0.00 | 19 | 1012.1 |
| 20260503201709 | 93 | 136 | 1.0 | 7.0 | 0.00 | 0.00 | 0.00 | 22 | 1012.2 |
| 20260503201206 | 93 | 74 | 3.0 | 7.0 | 0.00 | 0.00 | 0.00 | 21 | 1012.3 |
| 20260503200702 | 93 | 186 | 3.0 | 11.0 | 0.00 | 0.00 | 0.00 | 20 | 1012.3 |
| 20260503200159 | 93 | 180 | 2.0 | 8.0 | 0.00 | 0.00 | 0.00 | 19 | 1012.5 |
| 20260503195656 | 93 | 188 | 4.0 | 5.0 | 0.00 | 0.00 | 0.00 | 22 | 1012.7 |
| 20260503195153 | 93 | 206 | 5.0 | 10.0 | 0.00 | 0.00 | 0.00 | 20 | 1012.6 |
| 20260503194650 | 92 | 161 | 0.0 | 6.0 | 0.00 | 0.00 | 0.00 | 22 | 1012.7 |
| 20260503194145 | 93 | 153 | 7.0 | 10.0 | 0.00 | 0.00 | 0.00 | 19 | 1012.8 |
| 20260503193642 | 91 | 142 | 1.0 | 11.0 | 0.00 | 0.00 | 0.00 | 22 | 1012.8 |
| 20260503193137 | 92 | 167 | 6.0 | 7.0 | 0.00 | 0.00 | 0.00 | 20 | 1013.0 |
| 20260503192633 | 92 | 164 | 3.0 | 7.0 | 0.00 | 0.00 | 0.00 | 21 | 1013.0 |
| 20260503192129 | 92 | 203 | 5.0 | 8.0 | 0.00 | 0.00 | 0.00 | 21 | 1013.2 |
| 20260503191626 | 91 | 209 | 4.0 | 7.0 | 0.00 | 0.00 | 0.00 | 23 | 1013.4 |
| 20260503191123 | 91 | 162 | 5.0 | 11.0 | 0.00 | 0.00 | 0.00 | 20 | 1013.4 |
| 20260503190620 | 92 | 222 | 3.0 | 9.0 | 0.00 | 0.00 | 0.00 | 22 | 1013.4 |
| 20260503190117 | 91 | 227 | 5.0 | 12.0 | 0.00 | 0.00 | 0.00 | 24 | 1013.4 |
| 20260503185614 | 92 | 202 | 6.0 | 7.0 | 0.00 | 0.00 | 0.00 | 24 | 1013.2 |
| 20260503185109 | 91 | 228 | 3.0 | 5.0 | 0.00 | 0.00 | 0.00 | 26 | 1013.5 |
| 20260503184604 | 91 | 94 | 2.0 | 5.0 | 0.00 | 0.00 | 0.00 | 26 | 1013.4 |
| 20260503184101 | 91 | 108 | 3.0 | 6.0 | 0.00 | 0.00 | 0.00 | 23 | 1013.7 |
| 20260503183557 | 90 | 234 | 2.0 | 7.0 | 0.00 | 0.00 | 0.00 | 27 | 1013.8 |
| 20260503183054 | 89 | 205 | 2.0 | 7.0 | 0.00 | 0.00 | 0.00 | 25 | 1013.7 |
| 20260503182552 | 89 | 78 | 4.0 | 5.0 | 0.00 | 0.00 | 0.00 | 24 | 1014.0 |
| 20260503182050 | 89 | 43 | 1.0 | 6.0 | 0.00 | 0.00 | 0.00 | 25 | 1014.2 |
| 20260503181547 | 89 | 203 | 0.0 | 9.0 | 0.00 | 0.00 | 0.00 | 26 | 1014.1 |
| 20260503181043 | 89 | 148 | 4.0 | 10.0 | 0.00 | 0.00 | 0.00 | 25 | 1014.1 |
| 20260503180541 | 89 | 199 | 2.0 | 8.0 | 0.00 | 0.00 | 0.00 | 27 | 1014.2 |
| 20260503180038 | 89 | 196 | 2.0 | 5.0 | 0.00 | 0.00 | 0.00 | 27 | 1014.2 |
| 20260503175535 | 89 | 151 | 4.0 | 5.0 | 0.00 | 0.00 | 0.00 | 25 | 1014.4 |
| 20260503175032 | 88 | 178 | 2.0 | 7.0 | 0.00 | 0.00 | 0.00 | 27 | 1014.1 |
| 20260503174524 | 88 | 41 | 3.0 | 8.0 | 0.00 | 0.00 | 0.00 | 26 | 1014.4 |
| 20260503174020 | 87 | 164 | 3.0 | 6.0 | 0.00 | 0.00 | 0.00 | 26 | 1014.4 |
| 20260503173515 | 87 | 60 | 3.0 | 9.0 | 0.00 | 0.00 | 0.00 | 26 | 1014.5 |
| 20260503173011 | 88 | 135 | 3.0 | 9.0 | 0.00 | 0.00 | 0.00 | 27 | 1014.4 |
| 20260503172509 | 87 | 150 | 2.0 | 6.0 | 0.00 | 0.00 | 0.00 | 28 | 1014.6 |
| 20260503172006 | 86 | 229 | 2.0 | 10.0 | 0.00 | 0.00 | 0.00 | 30 | 1014.4 |
| 20260503171503 | 87 | 135 | 3.0 | 7.0 | 0.00 | 0.00 | 0.00 | 27 | 1014.5 |
| 20260503171000 | 87 | 112 | 0.0 | 3.0 | 0.00 | 0.00 | 0.00 | 29 | 1014.6 |
| 20260503170456 | 86 | 81 | 3.0 | 6.0 | 0.00 | 0.00 | 0.00 | 30 | 1014.6 |
| 20260503150843 | 79 | 91 | 4.0 | 8.0 | 0.00 | 0.00 | 0.00 | 34 | 1014.6 |
| 20260503150339 | 79 | 103 | 3.0 | 5.0 | 0.00 | 0.00 | 0.00 | 35 | 1014.6 |
| 20260503140304 | 75 | 98 | 3.0 | 3.0 | 0.00 | 0.00 | 0.00 | 37 | 1014.5 |
| 20260503131232 | 74 | 85 | 1.0 | 3.0 | 0.00 | 0.00 | 0.00 | 38 | 1013.7 |
| 20260503130730 | 74 | 81 | 2.0 | 4.0 | 0.00 | 0.00 | 0.00 | 38 | 1013.8 |
| 20260503130227 | 74 | 76 | 4.0 | 5.0 | 0.00 | 0.00 | 0.00 | 37 | 1014.0 |
| 20260503120153 | 71 | 116 | 0.0 | 2.0 | 0.00 | 0.00 | 0.00 | 40 | 1013.6 |
| 20260503110620 | 68 | 45 | 0.0 | 2.0 | 0.00 | 0.00 | 0.00 | 45 | 1013.7 |
| 20260503110118 | 68 | 38 | 0.0 | 1.0 | 0.00 | 0.00 | 0.00 | 46 | 1013.5 |
| 20260503090450 | 70 | 16 | 0.0 | 2.0 | 0.00 | 0.00 | 0.00 | 40 | 1013.4 |
| 20260503081411 | 70 | 129 | 0.0 | 0.0 | 0.00 | 0.00 | 0.00 | 41 | 1014.0 |
| 20260503080908 | 70 | 6 | 0.0 | 2.0 | 0.00 | 0.00 | 0.00 | 42 | 1013.8 |
| 20260503080404 | 70 | 60 | 0.0 | 2.0 | 0.00 | 0.00 | 0.00 | 40 | 1013.9 |
| 20260503072840 | 70 | 154 | 0.0 | 2.0 | 0.00 | 0.00 | 0.00 | 40 | 1014.0 |
| 20260503072337 | 71 | 89 | 0.0 | 0.0 | 0.00 | 0.00 | 0.00 | 39 | 1013.9 |
| 20260503071834 | 71 | 15 | 0.0 | 2.0 | 0.00 | 0.00 | 0.00 | 38 | 1013.8 |
| 20260503071331 | 71 | 45 | 0.0 | 2.0 | 0.00 | 0.00 | 0.00 | 38 | 1014.0 |
| 20260503070827 | 71 | 124 | 0.0 | 1.0 | 0.00 | 0.00 | 0.00 | 38 | 1013.8 |
| 20260503070320 | 71 | 147 | 0.0 | 1.0 | 0.00 | 0.00 | 0.00 | 38 | 1013.8 |
| 20260503060244 | 72 | 31 | 0.0 | 2.0 | 0.00 | 0.00 | 0.00 | 34 | 1013.6 |
| 20260503054731 | 73 | 6 | 1.0 | 2.0 | 0.00 | 0.00 | 0.00 | 35 | 1013.5 |
| 20260503054228 | 73 | 10 | 0.0 | 2.0 | 0.00 | 0.00 | 0.00 | 35 | 1013.6 |
| 20260503053726 | 73 | 117 | 0.0 | 2.0 | 0.00 | 0.00 | 0.00 | 33 | 1013.8 |
| 20260503053225 | 72 | 98 | 0.0 | 2.0 | 0.00 | 0.00 | 0.00 | 37 | 1013.5 |
| 20260503052721 | 72 | 88 | 1.0 | 2.0 | 0.00 | 0.00 | 0.00 | 39 | 1013.1 |
| 20260503052217 | 72 | 37 | 0.0 | 1.0 | 0.00 | 0.00 | 0.00 | 37 | 1013.4 |
| 20260503051713 | 73 | 117 | 0.0 | 1.0 | 0.00 | 0.00 | 0.00 | 37 | 1013.5 |